When you browse on this site, cookies collect data to enhance your experience and personalize the content and advertising you see.
Visit our Privacy Policy to learn more. By continuing to use the site, you agree to this use of cookies and data.
  • In Austria
  • List of Countries
  • For 7 days
  • Water Temperature
  • Satellite Maps
  • Weather Map
  • News
  • Weather Widgets
  • user-avatar
    Login

    Hourly Weather Salzburg

    Today, 26 May, Sunday

    Time Temperature Precipitation Wind Pressure Humidity
    00:00 +5°C° 0.3 mm 1 mps 625 mmHg 96%
    01:00 +4°C° 0 mm 0 mps 625 mmHg 96%
    02:00 +4°C° 0.1 mm 0 mps 625 mmHg 96%
    03:00 +3°C° 0.1 mm 0 mps 625 mmHg 96%
    04:00 +3°C° 0.1 mm 0 mps 625 mmHg 96%
    05:00 +4°C° 0 mm 0 mps 625 mmHg 94%
    06:00 +6°C° 0 mm 0 mps 626 mmHg 92%
    07:00 +7°C° 0 mm 0 mps 627 mmHg 91%
    08:00 +9°C° 0.1 mm 0 mps 627 mmHg 84%
    09:00 +10°C° 0.1 mm 0 mps 627 mmHg 78%
    10:00 +12°C° 0.1 mm 0 mps 628 mmHg 71%
    11:00 +14°C° 0.4 mm 1 mps 628 mmHg 70%
    12:00 +15°C° 0.4 mm 1 mps 628 mmHg 69%
    13:00 +16°C° 0.4 mm 1 mps 628 mmHg 67%
    14:00 +15°C° 0.8 mm 1 mps 628 mmHg 72%
    15:00 +14°C° 0.8 mm 1 mps 627 mmHg 76%
    16:00 +13°C° 0.8 mm 2 mps 626 mmHg 80%
    17:00 +12°C° 0.5 mm 1 mps 626 mmHg 84%
    18:00 +11°C° 0.5 mm 1 mps 626 mmHg 89%
    19:00 +10°C° 0.5 mm 1 mps 625 mmHg 93%
    20:00 +9°C° 0.5 mm 1 mps 625 mmHg 94%
    21:00 +8°C° 0.5 mm 1 mps 625 mmHg 94%
    22:00 +7°C° 0.5 mm 1 mps 625 mmHg 95%
    23:00 +7°C° 0.1 mm 1 mps 624 mmHg 95%

    Tomorrow, 27 May, Monday

    Time Temperature Precipitation Wind Pressure Humidity
    00:00 +6°C° 0.1 mm 1 mps 624 mmHg 95%
    01:00 +6°C° 0.1 mm 1 mps 624 mmHg 95%
    02:00 +6°C° 0 mm 1 mps 623 mmHg 95%
    03:00 +6°C° 0 mm 1 mps 623 mmHg 95%
    04:00 +6°C° 0 mm 1 mps 623 mmHg 95%
    05:00 +6°C° 0 mm 0 mps 623 mmHg 93%
    06:00 +8°C° 0 mm 0 mps 624 mmHg 91%
    07:00 +9°C° 0 mm 0 mps 624 mmHg 88%
    08:00 +10°C° 0.2 mm 0 mps 625 mmHg 84%
    09:00 +12°C° 0.2 mm 1 mps 625 mmHg 80%
    10:00 +13°C° 0.2 mm 1 mps 625 mmHg 76%
    11:00 +13°C° 0.6 mm 1 mps 625 mmHg 78%
    12:00 +13°C° 0.6 mm 1 mps 624 mmHg 81%
    13:00 +13°C° 0.6 mm 1 mps 624 mmHg 84%
    14:00 +12°C° 0.6 mm 1 mps 623 mmHg 87%
    15:00 +12°C° 0.6 mm 1 mps 623 mmHg 89%
    16:00 +12°C° 0.6 mm 1 mps 623 mmHg 92%
    17:00 +11°C° 0.9 mm 1 mps 622 mmHg 94%
    18:00 +11°C° 0.9 mm 1 mps 622 mmHg 95%
    19:00 +10°C° 0.9 mm 1 mps 621 mmHg 97%
    20:00 +10°C° 2.3 mm 1 mps 621 mmHg 97%
    21:00 +9°C° 2.3 mm 1 mps 621 mmHg 98%
    22:00 +8°C° 2.3 mm 0 mps 621 mmHg 98%
    23:00 +7°C° 5.3 mm 0 mps 620 mmHg 98%

    Day after tomorrow, 28 May, Tuesday

    Time Temperature Precipitation Wind Pressure Humidity
    00:00 +7°C° 5.3 mm 0 mps 620 mmHg 98%
    01:00 +7°C° 5.3 mm 0 mps 620 mmHg 98%
    02:00 +6°C° 2.9 mm 0 mps 619 mmHg 98%
    03:00 +6°C° 2.9 mm 0 mps 619 mmHg 98%
    04:00 +6°C° 2.9 mm 0 mps 619 mmHg 99%
    05:00 +6°C° 1.6 mm 0 mps 619 mmHg 98%
    06:00 +6°C° 1.6 mm 0 mps 619 mmHg 98%
    07:00 +6°C° 1.6 mm 0 mps 619 mmHg 98%
    08:00 +7°C° 2 mm 1 mps 619 mmHg 98%
    09:00 +7°C° 2 mm 1 mps 619 mmHg 98%
    10:00 +6°C° 2 mm 1 mps 619 mmHg 98%
    11:00 +6°C° 1.7 mm 1 mps 619 mmHg 98%
    12:00 +6°C° 1.7 mm 1 mps 619 mmHg 97%
    13:00 +6°C° 1.7 mm 1 mps 619 mmHg 97%
    14:00 +6°C° 1.4 mm 1 mps 619 mmHg 97%
    15:00 +6°C° 1.4 mm 1 mps 619 mmHg 98%
    16:00 +5°C° 1.4 mm 1 mps 619 mmHg 98%
    17:00 +5°C° 1.4 mm 1 mps 619 mmHg 98%
    18:00 +5°C° 1.4 mm 1 mps 619 mmHg 98%
    19:00 +4°C° 1.4 mm 1 mps 620 mmHg 98%
    20:00 +4°C° 1.1 mm 1 mps 620 mmHg 98%
    21:00 +4°C° 1.1 mm 1 mps 620 mmHg 98%
    22:00 +3°C° 1.1 mm 1 mps 620 mmHg 98%
    23:00 +3°C° 1.6 mm 1 mps 620 mmHg 98%

    29 May, Wednesday

    Time Temperature Precipitation Wind Pressure Humidity
    00:00 +3°C° 1.6 mm 1 mps 621 mmHg 98%
    01:00 +3°C° 1.6 mm 1 mps 621 mmHg 98%
    02:00 +3°C° 1.7 mm 1 mps 621 mmHg 98%
    03:00 +2°C° 1.7 mm 1 mps 621 mmHg 98%
    04:00 +2°C° 1.7 mm 1 mps 621 mmHg 98%
    05:00 +3°C° 1.5 mm 1 mps 621 mmHg 98%
    06:00 +3°C° 1.5 mm 1 mps 621 mmHg 98%
    07:00 +3°C° 1.5 mm 1 mps 622 mmHg 98%
    08:00 +3°C° 1.4 mm 1 mps 622 mmHg 97%
    09:00 +3°C° 1.4 mm 1 mps 622 mmHg 97%
    10:00 +3°C° 1.4 mm 1 mps 623 mmHg 97%
    11:00 +4°C° 1 mm 1 mps 623 mmHg 95%
    12:00 +4°C° 1 mm 1 mps 623 mmHg 93%
    13:00 +5°C° 1 mm 1 mps 624 mmHg 91%
    14:00 +5°C° 0.6 mm 1 mps 624 mmHg 91%
    15:00 +5°C° 0.6 mm 1 mps 624 mmHg 91%
    16:00 +5°C° 0.6 mm 1 mps 624 mmHg 90%
    17:00 +5°C° 0.6 mm 1 mps 625 mmHg 92%
    18:00 +4°C° 0.6 mm 1 mps 625 mmHg 94%
    19:00 +4°C° 0.6 mm 1 mps 625 mmHg 96%
    20:00 +4°C° 1 mm 1 mps 625 mmHg 97%
    21:00 +3°C° 1 mm 1 mps 626 mmHg 97%
    22:00 +3°C° 1 mm 1 mps 626 mmHg 98%
    23:00 +3°C° 1.3 mm 1 mps 627 mmHg 98%

    30 May, Thursday

    Time Temperature Precipitation Wind Pressure Humidity
    00:00 +3°C° 1.3 mm 1 mps 627 mmHg 98%
    01:00 +2°C° 1.3 mm 1 mps 627 mmHg 98%
    02:00 +2°C° 1.5 mm 1 mps 627 mmHg 98%
    03:00 +2°C° 1.5 mm 1 mps 627 mmHg 98%
    04:00 +2°C° 1.5 mm 1 mps 627 mmHg 98%
    05:00 +3°C° 1.8 mm 1 mps 628 mmHg 98%
    06:00 +3°C° 1.8 mm 1 mps 628 mmHg 98%
    07:00 +3°C° 1.8 mm 1 mps 628 mmHg 97%
    08:00 +4°C° 0.7 mm 1 mps 629 mmHg 96%
    09:00 +5°C° 0.7 mm 1 mps 629 mmHg 94%
    10:00 +6°C° 0.7 mm 1 mps 629 mmHg 92%
    11:00 +7°C° 0.3 mm 1 mps 630 mmHg 85%
    12:00 +9°C° 0.3 mm 1 mps 630 mmHg 77%
    13:00 +10°C° 0.3 mm 1 mps 630 mmHg 70%
    14:00 +9°C° 0.2 mm 2 mps 630 mmHg 70%
    15:00 +9°C° 0.2 mm 2 mps 630 mmHg 69%
    16:00 +9°C° 0.2 mm 2 mps 630 mmHg 69%
    17:00 +9°C° 0.1 mm 1 mps 630 mmHg 75%
    18:00 +8°C° 0.1 mm 1 mps 629 mmHg 81%
    19:00 +7°C° 0.1 mm 1 mps 629 mmHg 87%
    20:00 +6°C° 0.1 mm 1 mps 629 mmHg 90%
    21:00 +5°C° 0.1 mm 1 mps 629 mmHg 92%
    22:00 +4°C° 0.1 mm 1 mps 629 mmHg 94%
    23:00 +4°C° 0.2 mm 1 mps 629 mmHg 93%

    31 May, Friday

    Time Temperature Precipitation Wind Pressure Humidity
    00:00 +4°C° 0.2 mm 1 mps 629 mmHg 92%
    01:00 +4°C° 0.2 mm 1 mps 629 mmHg 91%
    02:00 +4°C° 0.7 mm 1 mps 629 mmHg 92%
    03:00 +4°C° 0.7 mm 1 mps 629 mmHg 92%
    04:00 +4°C° 0.7 mm 1 mps 629 mmHg 93%
    05:00 +5°C° 0.7 mm 1 mps 629 mmHg 92%
    06:00 +5°C° 0.7 mm 1 mps 629 mmHg 92%
    07:00 +5°C° 0.7 mm 1 mps 629 mmHg 91%
    08:00 +6°C° 1.3 mm 1 mps 629 mmHg 92%
    09:00 +6°C° 1.3 mm 1 mps 629 mmHg 92%
    10:00 +6°C° 1.3 mm 1 mps 629 mmHg 93%
    11:00 +6°C° 2.1 mm 1 mps 629 mmHg 94%
    12:00 +6°C° 2.1 mm 1 mps 628 mmHg 95%
    13:00 +5°C° 2.1 mm 1 mps 628 mmHg 96%
    14:00 +6°C° 1.2 mm 1 mps 629 mmHg 96%
    15:00 +6°C° 1.2 mm 1 mps 629 mmHg 95%
    16:00 +6°C° 1.2 mm 1 mps 629 mmHg 95%
    17:00 +6°C° 2.3 mm 1 mps 629 mmHg 96%
    18:00 +6°C° 2.3 mm 1 mps 629 mmHg 96%
    19:00 +5°C° 2.3 mm 1 mps 629 mmHg 97%
    20:00 +5°C° 2.1 mm 1 mps 630 mmHg 98%
    21:00 +5°C° 2.1 mm 1 mps 630 mmHg 98%
    22:00 +5°C° 2.1 mm 1 mps 631 mmHg 98%
    23:00 +4°C° 0.6 mm 1 mps 631 mmHg 99%
    Show more